Location: Roland
(31.1349°N, 85.4372°W)
Time: 03:40:47
(UTC+00:00)

Courier 1B - Pass Details

Date: 24 April 2021
Orbit: 962 x 1209 km, 28.3° (Epoch: 07 May)

Event Time Altitude Azimuth Distance (km) Brightness Sun altitude
Rises 15:15:10 0° 230° (SW) 3,935 10.5 52.2°
Reaches altitude 10° 15:18:15 10° 222° (SW) 2,937 10.0 52.8°
Maximum altitude 15:24:38 35° 159° (SSE) 1,614 9.7 54.1°
Drops below altitude 10° 15:30:42 10° 95° (E) 2,782 10.6 55.3°
Sets 15:33:32 0° 87° (E) 3,703 11.0 55.8°
